Printer-friendly version

IAU Minor Planet Center

Minor Planet Center

MPEC 1996-F05: 1996 FS1

The following Minor Planet Electronic Circular may be linked-to from your own Web pages, but must not otherwise be redistributed electronically.


Read MPEC 1996-F04 Read MPEC 1996-F06


M.P.E.C. 1996-F05                                Issued 1996 Mar. 22, 15:00 UT

     The Minor Planet Electronic Circulars contain information on unusual
         minor planets and routine data on comets.  They are published
   on behalf of Commission 20 of the International Astronomical Union by the
          Minor Planet Center, Smithsonian Astrophysical Observatory,
                          Cambridge, MA 02138, U.S.A.

             BMARSDEN@CFA.HARVARD.EDU or GWILLIAMS@CFA.HARVARD.EDU

                                   1996 FS1

Observations:
     J96F01S* C1996 03 17.25078 10 20 10.22 +11 02 32.5          19.7 V      691
     J96F01S  C1996 03 17.27854 10 20 07.41 +11 04 27.8          19.6 V      691
     J96F01S  C1996 03 17.30057 10 20 05.24 +11 05 58.9          19.6 V      691
     J96F01S  C1996 03 18.17931 10 18 50.69 +12 04 19.4          20.1 V      691
     J96F01S  C1996 03 18.18484 10 18 50.20 +12 04 40.8          20.0 V      691
     J96F01S  C1996 03 18.19094 10 18 49.64 +12 05 04.3          19.9 V      691
     J96F01S  C1996 03 19.38207 10 17 16.45 +13 17 17.1          20.0 V      691
     J96F01S  C1996 03 19.38788 10 17 16.02 +13 17 36.9          19.8 V      691
     J96F01S  C1996 03 19.39361 10 17 15.57 +13 17 56.5          19.9 V      691

Observer details:
691 Steward Observatory, Kitt Peak.  Observer J. V. Scotti.
    0.9-m Spacewatch Telescope.

Orbital elements:
1996 FS1
Epoch 1996 Mar. 18.0 TT = JDT 2450160.5                 Marsden
M  53.00155              (2000.0)            P               Q
n   0.69769044     Peri.  222.34940     +0.82004768     -0.56519426
a   1.2590052      Node   170.68019     +0.54626321     +0.81985863
e   0.7149254      Incl.   33.70818     -0.17064087     -0.09158202
P   1.41           H    20.5          G   0.15
From 9 observations 1996 Mar. 17-19.

Ephemeris:
1996 FS1                 a,e,i = 1.26, 0.71, 34                  q = 0.3589
Date    TT    R. A. (2000) Decl.     Delta      r     Elong.  Phase     V
1996 03 18    10 19.08   +11 52.9    0.350    1.320   154.5    18.9    19.8
1996 03 20    10 16.58   +13 52.1    0.379    1.340   151.2    21.0    20.1
1996 03 22    10 14.58   +15 32.6    0.409    1.361   148.0    22.8    20.3
1996 03 24    10 13.02   +16 57.7    0.440    1.381   145.0    24.4    20.6
1996 03 26    10 11.84   +18 10.0    0.471    1.400   142.2    25.9    20.8
1996 03 28    10 10.99   +19 11.7    0.503    1.420   139.6    27.1    21.0
1996 03 30    10 10.44   +20 04.2    0.536    1.439   137.1    28.2    21.2
1996 04 01    10 10.15   +20 49.1    0.569    1.457   134.8    29.1    21.4
1996 04 03    10 10.09   +21 27.5    0.603    1.476   132.5    30.0    21.5
1996 04 05    10 10.24   +22 00.1    0.636    1.494   130.4    30.7    21.7
1996 04 07    10 10.57   +22 27.9    0.671    1.511   128.3    31.3    21.9

Brian G. Marsden             (C) Copyright 1996 MPC           M.P.E.C. 1996-F05

Read MPEC 1996-F04 Read MPEC 1996-F06


Our Web policy. Index to the CBAT/MPC/ICQ pages.


Valid HTML 4.01!